Wind_Speed
13 13 12 14 9 8 7 7 6 7 10 13 18 17 13 16 20 16 14 16 16 17 12 11 4 11 1 3 3 3 5 2 1 1 2 6 5 5 3 6 5 6 5 8 13
14 12 14 11 8 7 7 6 7 9 13 14 13 7 9 6 8 19 19 20 17 13 7 6 5 8 3 3 3 5 4 3 1 1 2 4 3 2 3 4 5 8 12 17 16
13 12 13 9 8 8 7 6 8 10 12 11 9 2 9 2 4 6 25 20 16 15 8 5 2 1 5 3 5 2 4 4 1 1 3 4 5 2 7 1 4 7 6 7 14
12 12 11 9 9 9 9 8 10 12 12 10 5 4 10 2 4 13 25 18 15 15 6 9 6 4 4 5 4 5 4 2 2 6 5 5 6 3 6 4 8 9 7 8 11
11 12 9 9 9 10 11 12 13 14 11 6 1 5 4 7 4 22 19 15 14 17 18 4 7 3 3 2 3 5 3 4 5 7 9 7 7 5 6 8 11 13 10 8 10
10 12 8 8 9 12 13 14 14 12 10 9 9 9 7 11 17 17 16 12 16 16 13 11 3 1 4 4 5 2 6 6 9 7 8 8 7 4 4 7 10 10 8 8 11
9 11 7 8 10 11 13 18 17 12 9 7 4 11 13 4 20 20 15 9 14 10 5 11 6 7 4 3 7 4 4 5 10 9 5 5 9 6 3 8 10 10 8 8 14
8 9 8 9 10 11 11 10 10 9 6 6 8 8 4 11 24 24 20 9 13 15 9 13 17 7 5 3 7 6 6 5 3 11 7 5 5 11 7 9 9 9 8 10 11
7 9 8 9 11 14 14 8 9 11 10 8 7 6 4 10 30 27 16 14 11 15 24 18 10 5 8 4 6 9 3 4 5 3 5 8 5 15 9 12 11 8 8 8 7
7 8 8 9 14 16 19 24 18 7 5 5 14 5 9 7 10 24 15 18 9 3 7 11 7 5 12 10 3 6 5 4 5 7 8 7 6 9 10 14 8 8 8 9 9
6 6 7 8 12 6 5 5 6 8 19 8 3 4 5 12 5 26 23 10 9 10 5 7 10 5 5 3 3 5 2 5 3 3 6 5 6 6 5 10 11 9 9 10 10
6 4 6 5 10 2 4 6 4 6 7 8 4 5 7 6 7 27 28 7 10 5 2 7 8 6 3 6 4 2 1 4 6 4 4 2 5 3 8 7 8 13 15 15 14
6 4 6 5 8 2 10 9 8 5 6 6 4 4 5 9 5 13 11 4 6 10 9 8 4 3 4 6 10 4 1 3 6 4 1 6 2 0 5 13 18 18 16 19 18
6 8 8 5 6 9 5 8 4 2 5 12 9 8 11 2 6 18 14 1 8 3 4 6 4 4 8 5 5 5 2 8 9 3 4 4 3 2 6 15 16 18 19 19 18
7 8 6 2 13 4 6 5 2 1 5 9 6 6 10 9 5 15 12 7 5 5 3 1 6 6 7 3 3 6 17 10 4 3 3 0 1 3 9 12 15 15 16 17 17
10 6 7 8 7 6 8 5 1 5 3 5 5 6 5 8 7 8 9 11 2 4 7 2 1 3 3 3 2 9 7 2 3 3 2 3 2 2 4 8 11 11 16 18 18
13 15 12 7 4 7 9 3 5 6 4 5 3 4 4 8 7 9 8 12 6 5 8 6 3 5 4 6 6 10 6 5 6 5 3 2 4 4 3 3 7 14 18 19 21
16 18 19 15 8 9 4 5 8 0 3 2 3 3 5 5 6 8 4 6 6 6 5 6 5 7 8 3 3 5 5 4 6 4 10 8 1 3 3 3 11 14 21 23 24
9 9 19 9 6 3 5 6 3 1 2 3 3 4 5 4 4 6 5 4 5 7 4 6 1 4 9 6 4 6 6 2 4 1 2 3 5 5 17 27 28 23 23 23 23
4 4 16 7 6 6 6 5 2 2 2 1 3 3 3 7 4 5 4 4 6 6 1 3 4 3 4 5 10 8 4 5 4 5 6 3 3 5 16 24 25 26 27 28 26
1 4 14 4 4 7 5 3 4 4 2 3 3 3 3 3 4 3 2 2 4 6 5 4 1 2 3 6 2 6 4 4 2 3 3 5 3 2 14 19 19 25 25 24 25
4 3 14 4 5 3 3 3 2 4 7 5 5 5 3 3 3 3 3 3 7 2 2 2 2 1 2 2 7 5 2 3 4 6 2 3 6 3 17 19 19 23 24 24 23
3 1 8 1 4 3 2 4 4 4 5 4 4 4 3 3 3 3 3 3 6 4 3 4 3 3 3 2 5 6 3 3 1 3 3 2 6 15 18 21 22 23 25 24 24
4 3 5 6 2 7 6 3 4 4 3 5 3 4 4 4 6 3 1 2 4 5 10 1 3 4 5 5 3 2 3 4 4 3 3 5 16 21 18 26 26 26 25 24 22
4 1 1 1 5 5 4 3 3 3 3 6 4 6 3 3 2 3 2 2 4 7 4 3 2 1 0 2 3 2 4 5 2 5 3 12 19 19 17 21 23 25 26 25 25
5 5 4 3 2 5 6 2 3 3 4 2 6 4 3 5 1 4 3 1 1 5 3 3 1 3 0 3 2 3 4 6 4 4 7 14 18 6 20 20 21 25 25 25 26
5 5 5 4 3 4 1 4 4 8 2 5 7 5 7 4 4 4 5 4 3 3 2 2 2 2 1 5 3 3 1 3 8 6 9 8 7 17 27 25 23 26 23 23 28
Wind_Direction
5 6 7 359 26 49 63 57 92 116 129 133 125 104 67 68 66 57 43 357 347 345 343 343 22 1 89 58 60 106 61 83 177 151 270 327 37 15 32 68 42 25 50 84 89
9 13 3 24 36 52 57 64 99 118 128 136 141 121 17 35 43 45 5 1 357 0 357 8 346 359 35 36 30 75 87 162 236 188 282 334 27 334 83 71 50 73 51 80 86
15 15 13 39 42 53 56 80 106 118 133 136 142 5 346 348 59 339 354 358 1 356 345 9 7 32 49 14 0 90 128 160 224 305 8 0 14 36 119 132 159 144 123 80 84
21 17 27 46 56 59 68 87 107 116 126 132 128 27 26 49 65 337 345 355 3 1 23 26 28 38 53 42 352 81 45 105 30 35 27 5 311 43 44 12 83 97 102 91 73
24 19 43 59 63 71 80 91 100 109 116 120 52 356 27 46 6 339 350 10 17 30 38 35 44 16 57 35 45 67 39 49 60 54 41 11 5 47 61 61 73 89 83 79 82
26 24 65 70 77 88 91 96 97 100 97 89 82 71 71 68 351 356 354 5 20 20 36 40 48 271 74 47 64 7 63 40 24 16 37 17 357 58 45 91 67 73 65 53 59
28 26 75 85 96 97 97 104 102 98 91 96 59 69 65 79 357 10 12 31 10 24 29 25 7 67 346 48 346 52 67 47 12 343 23 320 32 33 1 74 73 52 42 48 36
32 32 74 108 107 104 106 103 95 69 71 73 44 62 90 4 15 26 20 21 43 41 30 34 45 87 45 292 24 39 49 37 7 1 332 19 238 17 350 83 59 50 40 44 30
43 42 93 110 111 103 92 97 91 72 83 63 41 80 3 347 9 8 19 4 42 75 48 50 51 67 9 53 26 15 342 351 346 75 329 33 346 356 38 77 59 44 38 37 21
53 57 104 121 125 112 97 89 75 58 33 14 34 45 8 315 351 1 19 25 53 22 26 29 52 61 34 38 14 315 332 313 268 338 53 58 41 21 37 67 58 38 21 12 0
56 72 88 136 147 118 97 117 33 9 43 91 303 109 297 330 3 7 357 0 21 50 82 13 66 72 75 62 188 230 261 291 282 347 61 67 69 27 11 48 35 19 5 352 341
46 84 98 142 187 184 11 75 105 158 77 40 60 47 18 354 24 358 8 63 35 39 356 42 52 344 141 23 18 52 190 286 299 8 78 103 79 42 27 37 27 17 8 0 351
50 45 121 99 181 179 100 107 112 131 84 10 12 25 351 27 48 345 18 27 69 47 38 84 334 329 52 13 10 335 212 274 250 330 105 146 131 89 80 36 32 19 12 5 358
66 45 153 108 98 110 79 118 119 96 79 337 350 3 353 22 49 25 10 1 36 86 93 80 343 36 34 44 8 305 236 289 293 142 189 135 255 85 8 28 24 14 10 359 347
64 76 107 138 130 101 144 141 119 64 65 325 349 335 351 74 296 356 6 33 64 9 81 279 14 21 32 353 325 275 306 299 290 168 135 114 115 5 49 15 7 1 350 341 332
59 70 127 95 85 119 146 145 64 42 65 10 13 355 30 22 15 332 14 37 77 65 35 53 80 68 307 330 348 294 325 31 65 90 347 158 75 36 27 357 346 340 344 337 331
77 74 86 81 99 126 134 82 42 77 328 341 348 26 76 9 24 21 20 36 35 18 12 342 27 355 22 356 12 18 4 349 353 3 255 206 346 71 65 357 329 336 338 339 338
94 70 60 64 88 130 112 62 72 8 29 339 11 69 65 11 17 17 41 24 21 29 52 21 346 9 329 40 310 26 62 102 291 299 299 309 224 159 175 266 331 327 341 343 341
125 66 34 33 73 130 72 54 140 122 301 23 85 68 5 358 93 64 45 20 12 18 53 2 310 340 39 32 13 342 34 260 267 310 351 310 67 297 351 1 352 338 329 327 327
128 82 22 44 75 73 73 116 101 24 1 21 86 28 33 343 49 58 28 343 337 19 132 345 310 24 335 36 28 89 311 10 22 341 310 328 25 302 355 347 343 334 329 325 325
108 62 6 113 66 52 95 108 110 45 83 55 122 93 63 35 51 58 5 301 344 327 44 9 98 312 57 35 21 12 19 37 156 155 225 308 282 323 354 338 331 324 322 321 318
93 57 359 141 52 43 67 82 99 0 26 51 83 67 76 40 57 94 101 14 345 344 42 329 130 345 94 70 93 96 69 106 115 287 239 166 276 347 344 332 325 320 318 317 314
90 107 4 89 109 77 80 66 72 39 32 45 77 79 63 85 76 67 80 1 14 50 60 344 14 10 357 343 10 49 8 15 98 75 225 106 279 324 330 322 321 321 316 315 313
90 65 355 45 33 108 122 78 104 30 69 67 106 90 87 66 30 121 105 34 21 13 37 98 94 135 201 236 198 334 24 31 84 69 267 246 295 315 326 324 323 319 315 314 313
37 148 233 34 13 81 90 103 106 67 35 32 56 44 78 96 75 112 127 110 27 355 31 69 97 328 87 110 350 55 66 349 103 250 156 296 299 303 321 316 313 310 312 314 316
122 131 28 76 30 66 19 42 118 130 18 35 90 45 94 115 196 182 125 125 210 21 50 354 216 11 176 5 324 97 28 328 261 315 299 289 298 313 313 316 318 316 318 318 319
117 103 101 328 45 81 282 157 130 124 64 47 138 101 67 105 108 93 85 79 82 108 83 53 102 61 305 0 104 334 343 302 291 287 277 290 298 323 322 322 322 316 309 314 321
Height
809 806 804 802 800 798 797 796 795 795 796 797 798 798 798 798 798 796 796 802 798 794 791 788 788 786 786 787 788 793 826 835 824 821 816 808 808 805 807 811 814 817 820 823 824
809 807 804 801 800 799 798 797 796 797 798 799 800 800 800 799 798 797 803 800 797 793 790 789 788 787 791 791 794 807 831 822 814 813 814 811 809 809 812 817 824 825 826 826 826
809 807 805 803 801 800 799 798 798 799 800 801 802 802 801 799 801 805 802 799 797 794 791 789 789 789 796 795 802 806 824 814 812 810 811 813 812 808 817 819 820 828 830 830 828
810 808 806 804 803 802 800 800 800 801 802 803 804 803 801 800 824 807 803 800 797 794 791 790 791 797 806 808 804 816 811 810 811 813 815 819 814 814 819 829 823 828 831 831 829
811 809 807 806 805 804 803 802 803 803 804 805 805 804 803 810 816 809 804 801 798 795 793 795 800 804 812 808 807 814 813 811 814 815 820 816 823 821 835 833 831 833 834 834 833
812 810 808 807 807 806 805 805 805 806 806 807 807 806 807 821 815 809 805 802 800 799 798 798 802 802 807 812 816 814 817 821 822 823 825 829 828 822 839 836 837 837 840 839 838
813 811 809 808 808 808 808 809 809 809 810 810 809 809 810 822 815 809 806 805 803 802 803 803 803 806 810 816 819 818 826 826 837 834 834 830 838 848 840 840 842 845 845 842 842
814 812 810 810 810 811 811 812 812 812 811 811 811 810 820 818 815 808 807 806 806 807 807 807 805 809 820 821 827 838 842 855 848 843 837 833 845 848 845 846 852 851 850 848 847
815 813 812 812 813 813 814 814 814 814 813 812 812 812 826 820 815 816 813 812 810 810 811 810 810 829 830 837 856 863 866 858 852 851 847 845 856 860 850 849 857 859 856 852 850
816 815 814 814 815 815 815 816 816 816 816 815 816 822 828 831 825 820 814 812 812 812 815 823 837 853 851 859 885 876 872 863 859 858 857 867 875 869 863 860 866 866 863 860 857
817 816 815 815 816 816 817 817 821 827 825 838 838 837 835 830 828 822 819 815 816 825 842 843 854 874 872 867 864 868 870 871 863 861 869 877 877 877 871 868 871 873 872 868 863
817 817 817 817 817 817 818 822 828 829 842 837 837 837 836 834 836 830 825 830 840 850 846 860 874 873 869 871 870 868 866 866 863 863 866 880 885 879 881 881 883 883 877 873 869
818 817 818 818 817 819 821 826 827 828 840 843 841 841 841 840 848 847 840 841 851 860 866 873 875 867 866 873 872 870 867 872 874 866 859 874 881 878 881 887 885 882 881 877 873
819 818 818 818 821 823 826 828 828 828 859 865 852 849 846 843 853 852 850 851 855 864 867 874 871 871 875 877 880 880 865 867 866 868 874 867 884 880 888 893 893 892 886 881 874
820 819 819 819 820 824 828 829 829 830 883 866 860 854 854 858 864 858 857 852 868 870 866 880 879 881 881 881 879 881 868 872 872 873 870 867 882 892 894 899 899 896 890 884 877
821 820 820 821 822 826 827 829 831 858 888 873 866 869 867 870 872 869 867 861 869 871 875 880 873 877 880 878 877 875 871 867 873 883 880 874 879 915 913 912 905 899 892 885 876
823 821 821 821 826 827 828 831 860 886 875 883 879 875 880 885 884 887 892 894 905 884 899 890 884 883 880 883 880 888 891 888 878 881 869 872 884 916 911 908 905 898 890 883 874
825 824 824 824 827 828 830 846 879 882 885 879 880 877 889 889 895 899 902 914 910 912 919 915 895 895 890 892 895 897 905 917 906 904 881 883 893 911 905 904 901 895 885 875 869
825 825 827 828 829 830 837 882 889 887 887 886 882 888 897 892 896 906 919 923 920 921 916 922 901 898 898 900 900 905 918 912 916 915 927 901 909 910 902 891 891 892 885 877 869
825 827 831 831 830 831 858 891 892 888 888 886 891 897 898 903 901 911 922 927 925 921 920 923 922 907 904 904 910 919 919 928 940 965 942 917 911 920 913 903 898 892 883 873 865
826 833 835 833 832 844 884 892 890 889 887 890 893 899 906 907 910 921 929 927 924 922 923 926 926 909 908 923 926 930 936 936 942 948 970 960 924 908 916 910 907 897 886 877 866
827 843 836 834 852 882 892 887 886 893 891 893 897 903 909 912 914 919 925 929 929 926 930 928 938 932 927 927 924 928 932 943 971 964 962 982 949 914 910 908 905 895 885 875 864
837 843 836 833 874 895 890 894 896 896 900 897 902 903 908 914 918 924 929 930 930 928 931 932 944 955 929 931 932 942 942 942 950 973 985 999 947 906 911 906 901 895 883 871 859
837 854 851 853 875 882 891 897 900 899 900 902 903 903 908 916 925 926 930 930 931 931 927 930 945 945 958 939 950 946 943 948 960 998 988 960 935 917 915 907 895 888 878 867 855
844 872 871 889 887 886 888 895 900 902 901 905 908 915 914 931 924 929 930 932 934 933 935 939 941 943 943 947 946 945 948 951 975 956 987 940 934 923 921 911 900 887 874 861 850
849 864 876 893 886 887 898 899 903 909 909 907 915 923 918 926 927 932 933 934 936 937 942 948 950 950 948 951 952 954 952 952 947 945 947 938 932 924 914 907 895 883 871 860 846
843 848 856 897 896 896 903 897 901 908 918 919 918 923 930 931 933 934 937 941 940 942 950 952 958 971 950 962 953 960 954 951 948 946 946 943 936 921 908 899 891 880 871 859 845